Regional Weather Roundup
Issued by NWS

Home | Current Version | Previous Version | Text Only | Print | Product List | Glossary On
Versions: 1 2 3 4 5 6 7 8 9 10 11 12 13 14 15 16 17 18 19 20 21 22 23 24 25 26 27 28 29 30 31 32 33 34 35 36 37 38 39 40 41 42 43 44 45 46 47 48 49 50
000
ASUS43 KMPX 230001
RWRMN
WEATHER ROUNDUP FOR MINNESOTA
NATIONAL WEATHER SERVICE TWIN CITIES/CHANHASSEN MN
600 PM CST MON DEC 22 2014


NOTE: "FAIR" INDICATES FEW OR NO CLOUDS BELOW 12,000 FEET WITH NO
SIGNIFICANT WEATHER AND/OR OBSTRUCTIONS TO VISIBILITY. N/A MEANS
CURRENT SKY AND/OR WEATHER CONDITIONS ARE NOT AVAILABLE.

MNZ060>063-068>070-230100-
   Twin Cities Metro

CITY           SKY/WX    TMP DP  RH WIND       PRES   REMARKS
TWIN CITIES    LGT RAIN  37  34  89 E10       29.60S FOG
6HR MIN TEMP:  35; 6HR MAX TEMP:  37; 6HR PCP:  0.05;

ST PAUL        LGT RAIN  37  35  92 E6        29.62S FOG
CRYSTAL        LGT RAIN  38  35  89 E7        29.60R FOG
BLAINE         CLOUDY    37  37 100 E6        29.61S FOG
LAKEVILLE      DRIZZLE   34  34 100 E10       29.58F WCI  26
EDEN PRAIRIE   LGT RAIN  37  34  89 E13       29.58S FOG
6HR MIN TEMP:  35; 6HR MAX TEMP:  37; 6HR PCP:  0.03;

SOUTH ST PAUL  DRIZZLE   37  36  93 E5        29.60S
LAKE ELMO      CLOUDY    36  36 100 E8        29.62S FOG
$$
MNZ001>005-007-008-013>017-022>024-027-028-230100-
   Northwest Minnesota

CITY           SKY/WX    TMP DP  RH WIND       PRES   REMARKS
BEMIDJI        LGT RAIN  33  32  96 E6        29.64R WCI  28
HALLOCK        DRIZZLE   36  34  93 NE6       29.67R
ROSEAU         LGT RAIN  34  30  86 E6        29.68R WCI  29
WARROAD        DRIZZLE   34  30  86 NE6       29.69S WCI  29
THIEF RVR FALL CLOUDY    36  36 100 E6        29.65R
CROOKSTON      CLOUDY    36  36 100 E6        29.64R
FOSSTON        CLOUDY    34  34 100 E3        29.64R
DETROIT LAKES  RAIN      34  34 100 E8        29.60R WCI  27
MOORHEAD       DRIZZLE   37  37 100 E9        29.60R
PARK RAPIDS    LGT SNOW  34  32  92 E8        29.61R FOG     WCI  27
MAHNOMEN       CLOUDY    35  33  92 E7        29.61R WCI  29
$$
MNZ006-009>011-018-025>026-230100-
   North Central Minnesota

CITY           SKY/WX    TMP DP  RH WIND       PRES   REMARKS
BAUDETTE       CLOUDY    34  33  96 E7        29.68R WCI  28
FLAG ISLAND    DRIZZLE   34  34 100 E6        29.70R WCI  29
INTL FALLS     LGT RAIN  34  32  92 E5        29.70R WCI  30
6HR MIN TEMP:  33; 6HR MAX TEMP:  35; 6HR PCP:  0.04;

WASKISH        DRIZZLE   36  34  93 CALM      29.68R
BIG FORK       LGT SNOW  34  34 100 E3        29.68R
LONGVILLE      MIX PCPN  34  34 100 CALM      29.64S
GRAND RAPIDS   CLOUDY    34  30  86 CALM      29.67R
CRANE LAKE     CLOUDY    34  32  93 CALM      29.74R FOG
ORR            CLOUDY    34  30  86 CALM      29.68R
COOK           CLOUDY    34  34 100 E3        29.70S FOG
WALKER         LGT RAIN  33  32  98 E5        29.64R WCI  28
$$
MNZ012-019>021-037-230100-
   Northeast Minnesota

CITY           SKY/WX    TMP DP  RH WIND       PRES   REMARKS
DULUTH         LGT SNOW  34  33  96 E13       29.69S VSB 1   WCI  25
6HR MIN TEMP:  33; 6HR MAX TEMP:  34; 6HR PCP:  0.02;

ELY            CLOUDY    34  32  93 SE7       29.72R WCI  28
HIBBING        CLOUDY    35  32  88 SE9       29.69R FOG     WCI  28
EVELETH        CLOUDY    34  34 100 SE5       29.71R FOG     WCI  30
DULUTH HARBOR  CLOUDY    36  34  93 E12       29.73S
TWO HARBORS    CLOUDY    37  32  81 NE7       29.71S HAZE
SILVER BAY     LGT RAIN  36  34  93 NE5       29.73R
GRAND MARAIS     N/A     38  35  89 E7        29.79S
G MARAIS ARPRT FOG       30  28  93 CALM      29.76S VSB<1/4
$$
MNZ029>031-032-039>041-046>048-054>057-064-230100-
   West Central Minnesota

CITY           SKY/WX    TMP DP  RH WIND       PRES   REMARKS
FERGUS FALLS   MIX PCPN  36  34  93 E8        29.59R
WHEATON        CLOUDY    32  32 100 E15       29.56R WCI  22
MORRIS         LGT SNOW  36  34  93 E16       29.53R
ALEXANDRIA     CLOUDY    34  32  92 E12       29.56R FOG     WCI  25
ELBOW LAKE     LGT RAIN  33  32  97 E14       29.55R WCI  23
WADENA         LGT SNOW  32  32 100 E8        29.59R WCI  25
GLENWOOD       CLOUDY    34  34 100 E16       29.56R FOG     WCI  23
APPLETON       LGT RAIN  36  34  93 E15G21    29.52R
BENSON         MIX PCPN  36  34  93 SE9       29.54R
ORTONVILLE     LGT RAIN  36  34  93 E14       29.51R
MADISON        DRIZZLE   39  37  93 E14       29.51R
WILLMAR        MIX PCPN  36  34  93 E13G20    29.56R
$$
MNZ033>034-036-042>043-049>051-058-059-230100-
   Central Minnesota

CITY           SKY/WX    TMP DP  RH WIND       PRES   REMARKS
ST CLOUD       MIX PCPN  36  33  89 E7        29.60R FOG
6HR MIN TEMP:  36; 6HR MAX TEMP:  38; 6HR PCP:  0.04;

SAUK CENTRE    LGT SNOW  33  32  98 E12       29.57S WCI  24
PAYNESVILLE    DRIZZLE   31  32 100 NE10      29.58R WCI  23
AITKIN         LGT SNOW  36  30  80 CALM      29.64R
PINE RIVER     MIX PCPN  34  34 100 E8        29.67R WCI  27
BRAINERD       LGT SNOW  33  32  96 VRB5      29.63R FOG     WCI  29
STAPLES        LGT RAIN  34  34 100 E7        29.61R WCI  28
LONG PRAIRIE   LGT SNOW  32  32 100 E9        29.59R WCI  24
LITTLE FALLS   MIX PCPN  32  32 100 E8        29.61R WCI  25
LITCHFIELD     LGT RAIN  34  34 100 E10       29.58R WCI  26
BUFFALO        DRIZZLE   35  33  92 E7        29.60S WCI  29
MAPLE LAKE     DRIZZLE   35  35  98 E7        29.60R WCI  29
$$
MNZ037-044-045-052-053-230100-
   East Central Minnesota

CITY           SKY/WX    TMP DP  RH WIND       PRES   REMARKS
PRINCETON      DRIZZLE   36  34  93 E7        29.62S
MORA           CLOUDY    32  32 100 E7        29.66R WCI  26
CAMBRIDGE      MIX PCPN  37  30  75 E5        29.62R
RUSH CITY      CLOUDY    35  33  94 E5        29.65R WCI  31
MOOSE LAKE     CLOUDY    34  32  93 E3        29.66S FOG
HINCKLEY       CLOUDY    34  34 100 CALM      29.66S FOG
CLOQUET        CLOUDY    34  34 100 E8        29.69R FOG     WCI  27
MCGREGOR       CLOUDY    34  34 100 E7        29.66S WCI  28
$$
MNZ071>073-080-081-089-090-097-098-230100-
   Southwest Minnesota

CITY           SKY/WX    TMP DP  RH WIND       PRES   REMARKS
MONTEVIDEO     RAIN      36  36 100 SE12      29.53R
GRANITE FALLS  RAIN      36  34  94 E10       29.54R
CANBY          LGT RAIN  37  37  99 E12       29.50R
MARSHALL       CLOUDY    37  34  87 SE15      29.49R
REDWOOD FALLS  LGT RAIN  36  34  92 E8G18     29.53R FOG
OLIVIA         CLOUDY    34  32  93 E14       29.54R FOG     WCI  24
PIPESTONE      RAIN      37  37 100 SE7       29.44R
WINDOM         LGT RAIN  36  34  93 E9        29.49S
WORTHINGTON    CLOUDY    36 -13  12 SE13      29.47R
JACKSON        DRIZZLE   34  34 100 SE12      29.49R WCI  25
TRACY          DRIZZLE   37  36  96 SE9       29.49R
SLAYTON        LGT SNOW  35  35 100 E10       29.48R WCI  28
$$
MNZ065>067-074>077-082>085-091>093-230100-
   South Central Minnesota

CITY           SKY/WX    TMP DP  RH WIND       PRES   REMARKS
MANKATO        CLOUDY    36  30  80 E12       29.55R
NEW ULM        DRIZZLE   36  36 100 E8        29.54R
ST JAMES       DRIZZLE   36  36 100 E12       29.53
FAIRMONT       CLOUDY    34  30  86 E10       29.51R WCI  26
GLENCOE        CLOUDY    35  36 100 E9        29.56S FOG     WCI  28
FARIBAULT      LGT RAIN  36  34  93 E8        29.57S
OWATONNA       RAIN      36  34  93 E10       29.56S
WASECA         DRIZZLE   34  32  93 E14       29.56S WCI  24
ALBERT LEA     LGT RAIN  34  34 100 E13       29.53S WCI  25
$$
MNZ078>079-086>088-094>096-230100-
   Southeast Minnesota

CITY           SKY/WX    TMP DP  RH WIND       PRES   REMARKS
ROCHESTER      MIX PCPN  34  33  96 E13       29.57S FOG     WCI  25
6HR MIN TEMP:  34; 6HR MAX TEMP:  36; 6HR PCP:  0.06;

RED WING       DRIZZLE   37  36  93 E8        29.60F
STANTON        DRIZZLE   37  34  89 E10       29.57F
DODGE CENTER   MIX PCPN  36  36 100 E12       29.56S
WINONA         DRIZZLE   36  34  93 SE9       29.62F
AUSTIN         LGT RAIN  34  34 100 E12       29.54S WCI  25
PRESTON        LGT RAIN  32  32  99 E8        29.57S WCI  25
$$
ABBREVIATIONS USED IN REMARKS
   TC - TEMPERATURES IN CELSIUS
  WCI - WIND CHILL INDEX
   HX - HEAT INDEX
  VSB - VISIBILITY
$$



USA.gov is the U.S. government's official web portal to all federal, state and local government web resources and services.